World > North America > United States > Texas > Dyess AFB   About Dyess Air Force Base

Dyess AFB, TX Hourly Weather Updates

Feedback E-mail the Weather

Quick Clicks

Dyess AFB, TX Weather Maps

°F °C°F °C
Dyess Afb Weather Map
UTC Time: 6/22/2024, 16:57
Your Time:

Dyess AFB, TX Regional Weather

Expires:202406221700;;472923
ASUS44 KFWD 221615
RWRTX 
NORTH TEXAS HOURLY WEATHER ROUNDUP
NATIONAL WEATHER SERVICE FORT WORTH TX
1100 AM CDT SAT JUN 22 2024

NOTE: "FAIR" INDICATES FEW OR NO CLOUDS BELOW 12,000 FEET WITH NO
SIGNIFICANT WEATHER AND/OR OBSTRUCTIONS TO VISIBILITY.


TXZ083>090-098>101-113>116-127>130-139>142-154-155-221700-
WESTERN NORTH TEXAS
  
CITY           SKY/WX    TMP DP  RH WIND       PRES   REMARKS
WICHITA FALLS  FAIR      89  72  56 SW13      30.05F HX  96           
WF-KICKAPOO    FAIR      88  70  56 SW14G22   30.07F HX  92           
VERNON         FAIR      91  68  47 SW17G23   30.06S HX  94           
ABILENE        FAIR      85  68  56 SW12      30.12F                  
ABILENE-DYESS  FAIR      85  66  53 SW8G29    30.10F                  
GRAHAM         FAIR      87  72  61 VRB7      30.07F HX  92           
BRECKENRIDGE   FAIR      87  70  55 MISG      30.10F HAZE    HX  92   
CISCO            N/A     84  72  65 SW10      30.11F                  
EASTLAND         N/A     84  67  56 S9        30.11F                  
RANGER         FAIR      83  35  17 S10       30.12F                  
MINERAL WELLS  FAIR      87  71  58 VRB7      30.08S HX  93           
STEPHENVILLE   FAIR      85  69  58 S9        30.14S                  
COMANCHE       FAIR      87  71  59 S6        30.12F HX  93           
BROWNWOOD      FAIR      86  68  54 S7        30.12F                  
COLEMAN        FAIR      84  67  55 MISG      30.13F                  
BRADY          FAIR      81  66  61 S9        30.13S                  
SAN SABA       PTSUNNY   84  69  61 S8        30.13S                  
$$


SKY/WX - Weather  TMP - Temperature  DP - Dew Point  RH - Humidity
WIND - Wind Direction/Speed PRES - Barometric Pressure VSB - Visibility
WCI - Wind Chill Index E13G22 Wind - East Wind 13 mph/Gusts of 22 mph

Trending Headlines

Trending Entertainment Headlines

Dyess AFB Radar Loop

Use the map search tool if you want to place a location marker on the radar map...

Dyess AFB Quick Facts

National Two Day Weather Forecast


E-mail the Dyess AFB Weather Forecast

Voice your opinion or tell us about page issues...